Shelbyville, IN

12:02 AM EST on February 07, 2016 (GMT -0500)
Shelbyville Municipal

Weather History for KGEZ - October, 2013

Change the Weather History Date:

Saturday, October 5, 2013

  Actual Average Record
Temperature  
Mean Temperature 73 °F 58 °F  
Max Temperature 78 °F 70 °F 87 °F (2007)
Min Temperature 67 °F 46 °F 35 °F (1999)
Degree Days  
Heating Degree Days 0 8  
Month to date heating degree days 0 38  
Since 1 July heating degree days 39 123  
Cooling Degree Days 8 1  
Month to date cooling degree days 35 5  
Year to date cooling degree days 1179 904  
Growing Degree Days 22 (Base 50)    
Moisture  
Dew Point 68 °F    
Average Humidity 83    
Maximum Humidity 90    
Minimum Humidity 76    
Precipitation  
Precipitation 0.55 in 0.10 in 2.22 in (2000)
Month to date precipitation 0.87 0.58  
Year to date precipitation 24.31 34.03  
Sea Level Pressure  
Sea Level Pressure 29.99 in    
Wind  
Wind Speed 8 mph (South)    
Max Wind Speed 18 mph    
Max Gust Speed 23 mph    
Visibility 8 miles    
Events Rain    
T = Trace of Precipitation, MM = Missing Value Source: NWS Daily Summary

Daily Weather History Graph

Daily Weather History Graph

Search for Another Location

Airport or City:

Trip Planner

Search our weather history database for the weather conditions in past years. The results will help you decide how hot, cold, wet, or windy it might be!

Date:

Astronomy

Oct. 05, 2013 Rise Set
Actual Time 7:43 AM EDT 7:18 PM EDT
Civil Twilight 7:16 AM EDT 7:45 PM EDT
Nautical Twilight 6:45 AM EDT 8:16 PM EDT
Astronomical Twilight 6:14 AM EDT 8:48 PM EDT
Moon 8:21 AM EDT (10/5) 7:37 PM EDT (10/5)
Length of Visible Light 12h 29m
Length of Day
11h 35m
New Moon, 0% of the Moon is Illuminated
Oct 5
New Moon
Oct 11
First Quarter
Oct 18
Full
Oct 26
Last Quarter
Nov 3
New

Hourly Weather History & Observations

Time (EDT) Temp. Dew Point Humidity Pressure Visibility Wind Dir Wind Speed Gust Speed Precip Events Conditions
12:53 AM 73.0 °F 66.9 °F 81% 30.03 in 10.0 mi South 8.1 mph - N/A   Mostly Cloudy
1:53 AM 71.1 °F 66.9 °F 87% 30.02 in 9.0 mi South 4.6 mph - N/A   Partly Cloudy
2:53 AM 72.0 °F 66.9 °F 84% 30.04 in 9.0 mi Variable 5.8 mph - N/A   Mostly Cloudy
3:53 AM 72.0 °F 66.9 °F 84% 30.01 in 9.0 mi Calm Calm - N/A   Mostly Cloudy
4:53 AM 72.0 °F 66.9 °F 84% 30.00 in 7.0 mi Calm Calm - N/A   Mostly Cloudy
5:30 AM 71.6 °F 68.0 °F 88% 30.04 in 1.5 mi SSW 8.1 mph - 0.17 in Rain Heavy Rain
5:34 AM 71.6 °F 68.0 °F 88% 30.03 in 0.8 mi South 8.1 mph - 0.30 in Rain Heavy Rain
5:41 AM 71.6 °F 68.0 °F 88% 30.03 in 1.5 mi SSW 8.1 mph - 0.31 in Rain Rain
5:43 AM 71.6 °F 68.0 °F 88% 30.03 in 3.0 mi SSW 10.4 mph - 0.31 in Rain Light Rain
5:53 AM 72.0 °F 68.0 °F 87% 30.00 in 7.0 mi South 6.9 mph - 0.32 in Rain Light Rain
6:11 AM 71.6 °F 68.0 °F 88% 30.02 in 5.0 mi SSE 5.8 mph - 0.00 in Rain Light Rain
6:53 AM 72.0 °F 68.0 °F 87% 30.00 in 5.0 mi South 4.6 mph - 0.00 in   Overcast
7:09 AM 71.6 °F 68.0 °F 88% 30.02 in 4.0 mi Calm Calm - N/A   Overcast
7:53 AM 72.0 °F 68.0 °F 87% 30.00 in 6.0 mi South 5.8 mph - N/A   Overcast
8:04 AM 71.6 °F 68.0 °F 88% 30.02 in 5.0 mi South 6.9 mph - N/A   Mostly Cloudy
8:53 AM 72.0 °F 68.0 °F 87% 30.01 in 6.0 mi South 10.4 mph - N/A   Mostly Cloudy
9:16 AM 71.6 °F 68.0 °F 88% 30.03 in 5.0 mi South 8.1 mph - N/A   Mostly Cloudy
9:31 AM 71.6 °F 69.8 °F 94% 30.03 in 6.0 mi South 5.8 mph - N/A   Mostly Cloudy
9:53 AM 73.9 °F 70.0 °F 87% 30.01 in 7.0 mi South 9.2 mph - N/A   Partly Cloudy
10:21 AM 75.2 °F 69.8 °F 83% 30.04 in 8.0 mi SSW 9.2 mph - N/A   Partly Cloudy
10:53 AM 75.0 °F 70.0 °F 84% 30.02 in 9.0 mi South 6.9 mph - N/A   Mostly Cloudy
11:49 AM 73.4 °F 69.8 °F 88% 30.03 in 7.0 mi South 9.2 mph - 0.01 in   Overcast
11:53 AM 73.0 °F 69.1 °F 87% 30.01 in 6.0 mi South 8.1 mph - 0.01 in   Overcast
12:21 PM 73.4 °F 69.8 °F 88% 30.03 in 5.0 mi South 8.1 mph - 0.01 in Rain Light Rain
12:53 PM 75.0 °F 70.0 °F 84% 30.01 in 8.0 mi SSW 8.1 mph - 0.01 in Rain Light Rain
1:45 PM 75.2 °F 69.8 °F 83% 30.01 in 10.0 mi South 9.2 mph - 0.00 in   Overcast
1:53 PM 75.9 °F 69.1 °F 79% 29.99 in 10.0 mi South 10.4 mph - 0.00 in   Overcast
2:25 PM 75.2 °F 69.8 °F 83% 29.99 in 9.0 mi SSW 10.4 mph - 0.00 in Rain Light Rain
2:53 PM 77.0 °F 70.0 °F 79% 29.95 in 9.0 mi South 11.5 mph - 0.00 in   Mostly Cloudy
3:09 PM 77.0 °F 69.8 °F 78% 29.97 in 10.0 mi South 10.4 mph 20.7 mph N/A   Mostly Cloudy
3:48 PM 75.2 °F 68.0 °F 78% 29.94 in 10.0 mi South 12.7 mph - N/A   Overcast
3:53 PM 75.0 °F 68.0 °F 79% 29.93 in 10.0 mi South 13.8 mph - N/A   Overcast
4:53 PM 75.0 °F 68.0 °F 79% 29.94 in 10.0 mi South 13.8 mph - N/A   Overcast
5:53 PM 75.0 °F 68.0 °F 79% 29.93 in 10.0 mi South 10.4 mph - N/A   Mostly Cloudy
6:07 PM 75.2 °F 68.0 °F 78% 29.95 in 10.0 mi South 10.4 mph - N/A   Scattered Clouds
6:53 PM 73.9 °F 69.1 °F 85% 29.93 in 10.0 mi South 8.1 mph - 0.04 in   Overcast
7:53 PM 73.0 °F 68.0 °F 84% 29.94 in 9.0 mi South 9.2 mph - 0.01 in Rain Light Rain
8:16 PM 71.6 °F 68.0 °F 88% 29.96 in 8.0 mi South 11.5 mph - 0.04 in Rain Light Rain
8:53 PM 70.0 °F 66.0 °F 87% 29.95 in 10.0 mi SSW 13.8 mph 19.6 mph 0.06 in Rain Light Rain
9:53 PM 69.1 °F 64.0 °F 84% 29.91 in 10.0 mi SSE 6.9 mph - 0.02 in   Partly Cloudy
10:53 PM 68.0 °F 64.0 °F 87% 29.91 in 10.0 mi South 8.1 mph - 0.01 in Rain Light Rain
11:53 PM 68.0 °F 64.9 °F 90% 29.91 in 10.0 mi South 11.5 mph - 0.02 in Rain Light Rain